Погода Винницы

Погода Винницы : погода сейчас, прогноз погоды и архив. Всё, что Вы хотите узнать о погоде Винницы!

Поиск расширенной информации на нашем сайте:

Полезная информация: Госзаказ за честные закупки.

Другие новости

Новости СМИ2

Главная страница сайта

Новости сайта

02.10.2013

Напоминаем, что на нашем новом сайте вы можете получить высокодетализированные прогнозы погоды по пунктам России, СНГ и мира (включающие важные для авиации метеовеличины, такие как направление и скорость ветра, видимость, явления погоды, количество и форма облачности, нижняя и верхняя граница облачности), а также ознакомиться с разнообразными материалами по авиационной метеорологии и подборкой полезных ссылок на эту тему.

Сайт Метеоцентр.Азия посвящён разработке технологий оптимизации авиаметеорологического обслуживания, включая проектирование и перспективное создание нескольких автоматизированных авиаметеорологических систем:
- система выпуска высокодетальных прогностических карт явлений погоды для нижнего воздушного пространства по России и ближнему зарубежью;
- система верификации прогнозов TAF (выпускаемых синоптиками официальных АМСГ РФ и ближнего зарубежья) и AUTOTAF (выпускаемых сайтом Метеоцентр.Азия) - выявление ошибок, онлайн-сопоставление с фактической погодой METAR, автоматическое внесение коррективов в прогнозы при резком отклонении фактической погоды от прогноза, подсчёт оправдываемости прогнозов по элементам и в целом;
- система обработки, анализа и отображения авиаметеорологической информации для применения провайдерами метеорологической информации.

Рекомендуем: Комплектующие секционных промышленных ворот. Промышленные секционные ворота качество.

Погода Винницы - сегодня

Время (UTC), дата Ветер
(°,м/с) 
Видим.   Явления Облачность Т
(°С)
Тd
(°С)
f(%) Тe
(°С)
Pmin
(гПа)
dP
(гПа)
Po
(мм)
O2
(г/м3)
Тmin Tmax R s Состояние
почвы
00 21.03.17 130 (ЮВ) 50000 м    ясно 
-3.8 -3.8 100 -3  1009.9  0.4  747  306           
03 21.03.17 140 (ЮВ) 50000 м    ясно 
-4.1 -4.2 99 -4  1010.1  0.1  747  306  -4.8         
06 21.03.17 170 (Ю) 20000 м    10/0 средняя 
[Ac und]
-3.1 -3.1 100 -5  1010.3  0.1  747  305  -4.8      21  равномерный
мокрый или
старый снег
100% 
09 21.03.17 170 (Ю) 20000 м    9/9 300 м 
[St]
+1.2 -0.8 86 +1  1009.6  -0.5  747  300           
12 21.03.17 160 (Ю) 20000 м    8/6 600 м верхняя 
[Sc|Ci fib]
+2.8 -1.5 73 +1  1008.1  -1.4  746  298           
15 21.03.17 150 (ЮВ) 20000 м    6/1 1000 м верхняя 
[Sc|Ci fib]
+3.2 -1.3 72 +2  1007.1  -1  745  297           
18 21.03.17 160 (Ю) 50000 м    4/3 1000 м верхняя 
[Sc|Ci fib]
+0.7 -1.9 83 1006.3  -0.9  744  299    +4.1       
21 21.03.17 180 (Ю) 17000 м  слаб. ливневой снег  10/10 570 м кучево-дожд. 
[Cb cap]
+1.7 -2 76 1005.5  -0.8  744  298           
00 22.03.17 210 (ЮЗ) 50000 м  {ливн. осадки}  10/10 540 м кучево-дожд. 
[Cb cap]
+2.2 +1.1 92 1006.2  0.8  744  297           
03 22.03.17 200 (Ю) 50000 м    8/4 600 м кучево-дожд., средняя, верхняя 
[Cb cap|Ac und|Ci fib]
+2.2 +1 92 +1  1007.1  0.8  745  298  +0.6    0.1     
06 22.03.17 200 (Ю) 20000 м    8/5 600 м кучево-дожд., средняя 
[Cb cap|Ac und]
+3.3 +0.9 84 +1  1007.7  0.7  746  297  +0.6    0.1  19  равномерный
мокрый или
старый снег
100% 
09 22.03.17 220 (ЮЗ) 5{11}  20000 м  в посл. час ливневой дождь  10/10 870 м кучево-дожд. 
[Cb cap]
+5.1 +1 75 +3  1007.4  -0.2  745  295           
12 22.03.17 240 (ЮЗ) 5{12}  27000 м  слаб. ливневой дождь  10/10 800 м кучево-дожд. 
[Cb cap]
+2.5 +1 90 1008.5  0.9  746  298           
15 22.03.17 220 (ЮЗ) 20000 м  {ливн. осадки}  8/5 600 м кучево-дожд., средняя 
[Cb cap|Ac und]
+2.7 +0.6 86 +1  1008.7  0.2  746  298      0.5     
18 22.03.17 230 (ЮЗ) 50000 м  {ливн. осадки}  8/5 600 м кучево-дожд., средняя 
[Cb cap|Ac und]
+1.2 +0 92 -1  1009.2  0.4  746  299    +5.1  0.5     
21 22.03.17 230 (ЮЗ) 50000 м    ясно 
+0.8 +0.2 96 -1  1009.6  0.5  747  300           
00 23.03.17 230 (ЮЗ) 50000 м    10/0 средняя 
[Ac und]
+1.1 +0.3 94 1009.7  747  300           
03 23.03.17 230 (ЮЗ) 5-10{10}  50000 м  в посл. час ливневой дождь  10/10 570 м кучево-дожд. 
[Cb cap]
+1.4 +0.3 92 -1  1009.9  0.3  747  299  +0.6    0.4     
06 23.03.17 240 (ЮЗ) 4{11}  20000 м  {ливн. осадки}  10/10 600 м кучево-дожд. 
[Cb cap]
+2.2 -0.1 85 1010.9  748  299  +0.6    0.4  17  равномерный
мокрый или
старый снег
100% 
09 23.03.17 240 (ЮЗ) 6-12{12}  20000 м    5/5 600 м кучево-дожд. 
[Cb cap]
+5 -0.8 66 +2  1011.2  0.5  748  296           
12 23.03.17 260 (З) 5-10{13}  22000 м  слаб. ливневой дождь  9/9 720 м кучево-дожд. 
[Cb cap]
+4.3 -0.2 73 +2  1012.8  1.5  749  297           
15 23.03.17 250 (З) 4{10}  20000 м  {ливн. осадки}  8/8 840 м кучево-дожд. 
[Cb cap]
+3.6 -1.2 71 +2  1013.8  0.9  750  298      0.1     
18 23.03.17 250 (З) 4{10}  50000 м  {ливн. осадки}  5/3 600 м кучево-дожд., средняя 
[Cb cap|Ac trans]
+1.6 -2.2 76 -1  1015.2  1.3  751  301    +6.1  0.1     
21 23.03.17 240 (ЮЗ) 50000 м    ясно 
-0.4 -3.2 81 -2  1015.6  0.7  751  303           
00 24.03.17 250 (З) 50000 м    ясно 
-1.9 -4.3 84 -4  1015  -0.6  751  305           
Время (UTC), дата Ветер
(°,м/с) 
Видим.   Явления Облачность Т
(°С)
Тd
(°С)
f(%) Тe
(°С)
Pmin
(гПа)
dP
(гПа)
Po
(мм)
O2
(г/м3)
Тmin Tmax R s Состояние
почвы

Для получения пояснительной информации подведите курсор к названию столбца.

ПОГОДА Винницы - архив

Всё, что Вы хотите узнать о погоде Винницы - удобно и подробно!

Выберите нужную дату (начиная с 1 января 2015* года) и нажмите кнопку "Найти".
Будут отображены архивные сводки погоды по пункту Винницы, начиная с указанной даты.


Отображать данные в формате CSV (для использования в таблицах Excel)


Внимание! Наш архив погоды предназначен исключительно для личного некоммерческого использования в познавательных целях. Если Вам необходимы официальные справки о состоянии погоды (для производственных, юридических, коммерческих и т.п. целей), обращайтесь в органы Росгидромета.

*Примечание: данная дата относится к архиву по метеостанциям СССР (Россия, СНГ, Балтия).
Архив по метеостанциям Зарубежной Европы и Азии (кроме Китая) хранится 10 дней, по другим регионам земного шара (Китай, Африка, Америка, Австралия, Океания) - 1 день.

Винницы - район местоположения метеостанции


Название, широта, долгота, высота метеостанции:
Винницы 60.6°ш. 34.8°д. 111 м над ур. моря [Российская Федерация]

Дополнительная информация

В oтличие oт бoльшинства пoгoдных сайтoв мы публикуем пoдрoбную метеoинфoрмацию в детальнoм прoфессиoнальнoм фoрмате.

Характеристики температуры и влажнoсти вoздуха измеряются на высoте 2 м в тени вдали oт зданий и деревьев.
Скoрoсть ветра измеряется на высoте 10 м (на урoвне рoста челoвека скoрoсть ветра ниже в 1.5-2 раза). Если метеoстанция нахoдится в гoрoде или в лесу, тo скoрoсть ветра занижена на 2-4 м/с пo сравнению с oткрытым местoм. Скoрoсть ветра над акватoриями крупных рек и oзёр, а также на вершинах хoлмoв на 2-5 м/с выше, чем в oбычных услoвиях.
Атмoсфернoе давление в разных тoчках местнoсти мoжет значительнo oтличаться oт давления на метеoстанции, в зависимoсти oт услoвий рельефа (при пoдъёме на 10 м давление пoнижается примернo на 1 мм рт.ст.).